• In Belarus
  • List of Countries
  • For 7 days
  • Water Temperature
  • Satellite Maps
  • Weather Map
  • Weather Widgets
  • user-avatar
    Login

    Hourly Weather Bolshoy Kon

    Today, 22 April, Monday

    Time Temperature Precipitation Wind Pressure Humidity
    00:00 +8°C° 0 mm 0 mps 751 mmHg 43%
    01:00 +8°C° 0 mm 0 mps 751 mmHg 44%
    02:00 +7°C° 0 mm 0 mps 751 mmHg 44%
    03:00 +8°C° 0 mm 1 mps 751 mmHg 46%
    04:00 +8°C° 0 mm 1 mps 751 mmHg 48%
    05:00 +7°C° 0 mm 1 mps 752 mmHg 50%
    06:00 +9°C° 0 mm 1 mps 752 mmHg 48%
    07:00 +10°C° 0 mm 2 mps 752 mmHg 45%
    08:00 +14°C° 0 mm 2 mps 752 mmHg 42%
    09:00 +15°C° 0 mm 2 mps 752 mmHg 37%
    10:00 +16°C° 0 mm 2 mps 752 mmHg 33%
    11:00 +17°C° 0 mm 2 mps 752 mmHg 29%
    12:00 +17°C° 0 mm 2 mps 752 mmHg 28%
    13:00 +17°C° 0 mm 2 mps 752 mmHg 28%
    14:00 +18°C° 0 mm 2 mps 752 mmHg 28%
    15:00 +17°C° 0 mm 2 mps 752 mmHg 31%
    16:00 +17°C° 0 mm 2 mps 752 mmHg 34%
    17:00 +16°C° 0 mm 2 mps 752 mmHg 36%
    18:00 +15°C° 0 mm 2 mps 752 mmHg 39%
    19:00 +14°C° 0 mm 2 mps 752 mmHg 43%
    20:00 +13°C° 0 mm 2 mps 752 mmHg 46%
    21:00 +13°C° 0 mm 1 mps 752 mmHg 47%
    22:00 +12°C° 0 mm 1 mps 752 mmHg 47%
    23:00 +11°C° 0 mm 0 mps 753 mmHg 48%

    Tomorrow, 23 April, Tuesday

    Time Temperature Precipitation Wind Pressure Humidity
    00:00 +11°C° 0 mm 0 mps 753 mmHg 49%
    01:00 +11°C° 0 mm 0 mps 753 mmHg 49%
    02:00 +10°C° 0 mm 0 mps 753 mmHg 49%
    03:00 +11°C° 0 mm 1 mps 753 mmHg 51%
    04:00 +11°C° 0 mm 1 mps 753 mmHg 52%
    05:00 +11°C° 0 mm 1 mps 753 mmHg 54%
    06:00 +12°C° 0 mm 2 mps 753 mmHg 51%
    07:00 +13°C° 0 mm 2 mps 753 mmHg 49%
    08:00 +14°C° 0 mm 2 mps 754 mmHg 46%
    09:00 +15°C° 0 mm 2 mps 754 mmHg 42%
    10:00 +16°C° 0 mm 3 mps 754 mmHg 38%
    11:00 +17°C° 0 mm 3 mps 754 mmHg 33%
    12:00 +18°C° 0 mm 3 mps 753 mmHg 34%
    13:00 +18°C° 0 mm 3 mps 753 mmHg 34%
    14:00 +18°C° 0 mm 3 mps 753 mmHg 35%
    15:00 +18°C° 0 mm 3 mps 753 mmHg 37%
    16:00 +18°C° 0 mm 3 mps 752 mmHg 40%
    17:00 +18°C° 0 mm 3 mps 752 mmHg 42%
    18:00 +16°C° 0 mm 3 mps 752 mmHg 47%
    19:00 +14°C° 0 mm 3 mps 752 mmHg 52%
    20:00 +12°C° 0 mm 3 mps 752 mmHg 57%
    21:00 +12°C° 0 mm 3 mps 752 mmHg 58%
    22:00 +11°C° 0 mm 3 mps 753 mmHg 60%
    23:00 +11°C° 0 mm 3 mps 753 mmHg 61%

    Day after tomorrow, 24 April, Wednesday

    Time Temperature Precipitation Wind Pressure Humidity
    00:00 +11°C° 0 mm 3 mps 753 mmHg 61%
    01:00 +12°C° 0 mm 2 mps 753 mmHg 62%
    02:00 +12°C° 0 mm 2 mps 753 mmHg 62%
    03:00 +10°C° 0 mm 2 mps 753 mmHg 65%
    04:00 +10°C° 0 mm 3 mps 753 mmHg 67%
    05:00 +9°C° 0 mm 3 mps 753 mmHg 70%
    06:00 +11°C° 0 mm 3 mps 753 mmHg 65%
    07:00 +13°C° 0 mm 3 mps 753 mmHg 61%
    08:00 +14°C° 0 mm 3 mps 753 mmHg 56%
    09:00 +17°C° 0 mm 4 mps 753 mmHg 51%
    10:00 +18°C° 0 mm 4 mps 753 mmHg 47%
    11:00 +19°C° 0 mm 4 mps 753 mmHg 42%
    12:00 +20°C° 0 mm 4 mps 752 mmHg 40%
    13:00 +20°C° 0 mm 4 mps 752 mmHg 39%
    14:00 +21°C° 0 mm 4 mps 752 mmHg 38%
    15:00 +21°C° 0 mm 4 mps 752 mmHg 40%
    16:00 +20°C° 0 mm 3 mps 752 mmHg 42%
    17:00 +20°C° 0 mm 3 mps 752 mmHg 44%
    18:00 +18°C° 0 mm 3 mps 752 mmHg 49%
    19:00 +17°C° 0 mm 2 mps 752 mmHg 53%
    20:00 +15°C° 0 mm 2 mps 752 mmHg 58%
    21:00 +15°C° 0 mm 2 mps 752 mmHg 60%
    22:00 +14°C° 0 mm 2 mps 752 mmHg 62%
    23:00 +13°C° 0 mm 2 mps 752 mmHg 63%

    25 April, Thursday

    Time Temperature Precipitation Wind Pressure Humidity
    00:00 +13°C° 0 mm 2 mps 752 mmHg 65%
    01:00 +12°C° 0 mm 2 mps 752 mmHg 66%
    02:00 +12°C° 0 mm 2 mps 752 mmHg 67%
    03:00 +12°C° 0 mm 2 mps 752 mmHg 69%
    04:00 +10°C° 0 mm 2 mps 752 mmHg 70%
    05:00 +10°C° 0 mm 2 mps 752 mmHg 72%
    06:00 +13°C° 0 mm 2 mps 752 mmHg 66%
    07:00 +15°C° 0 mm 2 mps 753 mmHg 60%
    08:00 +17°C° 0 mm 2 mps 753 mmHg 54%
    09:00 +18°C° 0 mm 2 mps 753 mmHg 50%
    10:00 +19°C° 0 mm 2 mps 752 mmHg 45%
    11:00 +21°C° 0 mm 3 mps 752 mmHg 40%
    12:00 +21°C° 0 mm 3 mps 752 mmHg 39%
    13:00 +23°C° 0 mm 2 mps 752 mmHg 37%
    14:00 +23°C° 0 mm 2 mps 751 mmHg 36%
    15:00 +23°C° 0 mm 2 mps 751 mmHg 38%
    16:00 +23°C° 0 mm 2 mps 751 mmHg 40%
    17:00 +23°C° 0 mm 2 mps 751 mmHg 42%
    18:00 +21°C° 0 mm 1 mps 751 mmHg 46%
    19:00 +19°C° 0 mm 1 mps 751 mmHg 50%
    20:00 +18°C° 0 mm 1 mps 751 mmHg 54%
    21:00 +16°C° 0 mm 1 mps 750 mmHg 55%
    22:00 +16°C° 0 mm 1 mps 750 mmHg 56%
    23:00 +14°C° 0 mm 0 mps 750 mmHg 58%

    26 April, Friday

    Time Temperature Precipitation Wind Pressure Humidity
    00:00 +14°C° 0 mm 0 mps 750 mmHg 57%
    01:00 +14°C° 0 mm 0 mps 750 mmHg 57%
    02:00 +14°C° 0 mm 0 mps 750 mmHg 57%
    03:00 +14°C° 0 mm 0 mps 750 mmHg 58%
    04:00 +14°C° 0 mm 0 mps 750 mmHg 59%
    05:00 +14°C° 0 mm 0 mps 750 mmHg 60%
    06:00 +16°C° 0 mm 1 mps 750 mmHg 57%
    07:00 +18°C° 0 mm 1 mps 750 mmHg 55%
    08:00 +19°C° 0 mm 1 mps 750 mmHg 52%
    09:00 +19°C° 0 mm 2 mps 750 mmHg 50%
    10:00 +20°C° 0 mm 2 mps 750 mmHg 48%
    11:00 +21°C° 0 mm 2 mps 750 mmHg 45%
    12:00 +21°C° 0 mm 2 mps 750 mmHg 46%
    13:00 +21°C° 0 mm 2 mps 749 mmHg 46%
    14:00 +21°C° 0 mm 2 mps 749 mmHg 46%
    15:00 +20°C° 0.4 mm 2 mps 749 mmHg 50%
    16:00 +20°C° 0.4 mm 2 mps 749 mmHg 53%
    17:00 +19°C° 0.4 mm 2 mps 748 mmHg 57%
    18:00 +18°C° 0.3 mm 2 mps 748 mmHg 62%
    19:00 +18°C° 0.3 mm 1 mps 748 mmHg 67%
    20:00 +14°C° 0.3 mm 0 mps 748 mmHg 71%
    21:00 +15°C° 0.5 mm 1 mps 748 mmHg 73%
    22:00 +14°C° 0.5 mm 1 mps 748 mmHg 75%
    23:00 +14°C° 0.5 mm 1 mps 748 mmHg 77%

    27 April, Saturday

    Time Temperature Precipitation Wind Pressure Humidity
    00:00 +13°C° 0.5 mm 1 mps 747 mmHg 79%
    01:00 +13°C° 0.5 mm 1 mps 747 mmHg 82%
    02:00 +13°C° 0.5 mm 1 mps 747 mmHg 84%
    03:00 +13°C° 0.2 mm 1 mps 747 mmHg 84%
    04:00 +13°C° 0.2 mm 1 mps 747 mmHg 83%
    05:00 +12°C° 0.2 mm 1 mps 747 mmHg 83%
    06:00 +14°C° 0.2 mm 1 mps 747 mmHg 77%
    07:00 +16°C° 0.2 mm 2 mps 747 mmHg 71%
    08:00 +17°C° 0.2 mm 2 mps 747 mmHg 65%
    09:00 +19°C° 0.2 mm 2 mps 747 mmHg 59%
    10:00 +20°C° 0.2 mm 3 mps 746 mmHg 53%
    11:00 +21°C° 0.2 mm 4 mps 746 mmHg 47%
    12:00 +21°C° 0 mm 3 mps 746 mmHg 48%
    13:00 +20°C° 0 mm 3 mps 746 mmHg 50%
    14:00 +20°C° 0 mm 3 mps 745 mmHg 51%
    15:00 +20°C° 0 mm 3 mps 745 mmHg 54%
    16:00 +20°C° 0 mm 3 mps 745 mmHg 56%
    17:00 +20°C° 0 mm 3 mps 745 mmHg 58%
    18:00 +18°C° 0.1 mm 3 mps 745 mmHg 61%
    19:00 +17°C° 0.1 mm 3 mps 745 mmHg 65%
    20:00 +16°C° 0.1 mm 3 mps 745 mmHg 69%
    21:00 +14°C° 0.6 mm 3 mps 744 mmHg 73%
    22:00 +13°C° 0.6 mm 3 mps 744 mmHg 77%
    23:00 +13°C° 0.6 mm 3 mps 744 mmHg 82%
    Show more